San Diego Brown, CA

5:35 AM PST on November 24, 2017 (GMT -0800)
Brown Municipal

Weather History for KSDM - August, 2014

Change the Weather History Date:

Friday, August 1, 2014

  Actual Average Record
Temperature  
Mean Temperature 72 °F 70 °F  
Max Temperature 79 °F 79 °F 91 °F (2000)
Min Temperature 66 °F 62 °F 55 °F (2010)
Cooling Degree Days 8 5  
Year to date cooling degree days 218  
Since 1 June cooling degree days 176  
Growing Degree Days 22 (Base 50)    
Moisture  
Dew Point 63 °F    
Average Humidity 79    
Maximum Humidity 90    
Minimum Humidity 58    
Precipitation  
Precipitation 0.00 in 0.00 in 0.01 in (1998)
Month to date precipitation 0.00  
Year to date precipitation 8.48  
Sea Level Pressure  
Sea Level Pressure 29.91 in    
Wind  
Wind Speed 2 mph (West)    
Max Wind Speed 10 mph    
Max Gust Speed -    
Visibility 10 miles    
Events      
T = Trace of Precipitation, MM = Missing Value Source: NWS Daily Summary

Daily Weather History Graph

Daily Weather History Graph

Search for Another Location

Airport or City:

Trip Planner

Search our weather history database for the weather conditions in past years. The results will help you decide how hot, cold, wet, or windy it might be!

Date:

Astronomy

Aug. 01, 2014 Rise Set
Actual Time 6:02 AM PDT 7:45 PM PDT
Civil Twilight 5:35 AM PDT 8:12 PM PDT
Nautical Twilight 5:03 AM PDT 8:44 PM PDT
Astronomical Twilight 4:28 AM PDT 9:18 PM PDT
Moon 11:09 AM PDT (8/1) 10:55 PM PDT (8/1)
Length of Visible Light 14h 37m
Length of Day
13h 43m
Waxing Crescent, 28% of the Moon is Illuminated
Aug 1
Waxing Crescent
Aug 3
First Quarter
Aug 10
Full
Aug 17
Last Quarter
Aug 25
New

Hourly Weather History & Observations

Time (PDT) Temp. Dew Point Humidity Pressure Visibility Wind Dir Wind Speed Gust Speed Precip Events Conditions
12:09 AM 66.9 °F 63.0 °F 87% 29.95 in 10.0 mi Calm Calm - N/A   Mostly Cloudy
12:25 AM 66.9 °F 63.0 °F 87% 29.94 in 10.0 mi Calm Calm - N/A   Scattered Clouds
12:53 AM 66.9 °F 63.0 °F 87% 29.92 in 10.0 mi Calm Calm - N/A   Clear
1:21 AM 66.9 °F 63.0 °F 87% 29.93 in 10.0 mi Calm Calm - N/A   Mostly Cloudy
1:53 AM 66.9 °F 63.0 °F 87% 29.91 in 10.0 mi Calm Calm - N/A   Overcast
2:53 AM 68.0 °F 63.0 °F 84% 29.90 in 10.0 mi Calm Calm - N/A   Overcast
3:53 AM 68.0 °F 63.0 °F 84% 29.89 in 10.0 mi Calm Calm - N/A   Overcast
4:49 AM 68.0 °F 62.6 °F 83% 29.91 in 10.0 mi Calm Calm - N/A   Overcast
4:53 AM 68.0 °F 63.0 °F 84% 29.90 in 10.0 mi Calm Calm - N/A   Overcast
5:53 AM 68.0 °F 63.0 °F 84% 29.90 in 9.0 mi Calm Calm - N/A   Overcast
6:26 AM 66.9 °F 63.0 °F 87% 29.92 in 7.0 mi Calm Calm - N/A   Overcast
6:53 AM 68.0 °F 64.0 °F 87% 29.91 in 8.0 mi Calm Calm - N/A   Overcast
7:45 AM 68.0 °F 64.0 °F 87% 29.93 in 8.0 mi Calm Calm - N/A   Overcast
7:53 AM 69.1 °F 64.0 °F 84% 29.91 in 8.0 mi Calm Calm - N/A   Overcast
8:09 AM 69.1 °F 64.0 °F 84% 29.93 in 8.0 mi West 4.6 mph - N/A   Overcast
8:53 AM 72.0 °F 64.0 °F 76% 29.92 in 10.0 mi Variable 5.8 mph - N/A   Mostly Cloudy
9:12 AM 73.0 °F 64.0 °F 73% 29.94 in 10.0 mi Variable 3.5 mph - N/A   Partly Cloudy
9:53 AM 73.9 °F 64.0 °F 71% 29.92 in 10.0 mi WSW 6.9 mph - N/A   Clear
10:53 AM 79.0 °F 64.0 °F 60% 29.92 in 10.0 mi NW 4.6 mph - N/A   Clear
11:53 AM 77.0 °F 64.0 °F 64% 29.92 in 10.0 mi West 9.2 mph - N/A   Clear
12:53 PM 79.0 °F 64.0 °F 60% 29.91 in 10.0 mi WNW 8.1 mph - N/A   Clear
1:53 PM 78.1 °F 64.0 °F 62% 29.90 in 10.0 mi WNW 10.4 mph - N/A   Clear
3:53 PM 79.0 °F 63.0 °F 58% 29.89 in 10.0 mi WNW 10.4 mph - N/A   Clear
4:53 PM 75.0 °F 63.0 °F 66% 29.89 in 10.0 mi West 9.2 mph - N/A   Clear
5:53 PM 75.0 °F 63.0 °F 66% 29.86 in 10.0 mi Variable 5.8 mph - N/A   Clear
6:53 PM 72.0 °F 63.0 °F 73% 29.87 in 10.0 mi WNW 8.1 mph - N/A   Clear
7:53 PM 69.1 °F 63.0 °F 81% 29.88 in 10.0 mi West 4.6 mph - N/A   Clear
8:53 PM 68.0 °F 63.0 °F 84% 29.89 in 10.0 mi West 5.8 mph - N/A   Clear
9:53 PM 68.0 °F 63.0 °F 84% 29.90 in 10.0 mi WNW 3.5 mph - N/A   Clear
10:53 PM 66.9 °F 63.0 °F 87% 29.91 in 10.0 mi West 5.8 mph - N/A   Clear
11:38 PM 66.9 °F 64.0 °F 90% 29.91 in 10.0 mi West 3.5 mph - N/A   Partly Cloudy
11:53 PM 66.9 °F 64.0 °F 90% 29.90 in 10.0 mi West 3.5 mph - N/A   Partly Cloudy